Regional Weather Roundup
Issued by NWS Portland, ME

Current Version | Previous Version | Text Only | Print | Product List | Glossary On
Versions: 1 2 3 4 5 6 7 8 9 10 11 12 13 14 15 16 17 18 19 20 21 22 23 24 25 26 27 28 29 30 31 32 33 34 35 36 37 38 39 40 41 42 43 44 45 46 47 48 49 50
000 ASUS41 KGYX 261605 RWRGYX WEATHER ROUNDUP FOR MAINE AND NEW HAMPSHIRE NATIONAL WEATHER SERVICE GRAY ME 1200 PM EDT MON JUN 26 2017 MEZ002-005-006-010-012-015-018-020-021-024-026-027-029-261700- MAINE CITY SKY/WX TMP DP RH WIND PRES REMARKS PORTLAND MOSUNNY 72 47 40 NW12 29.94S SANFORD PTSUNNY 72 49 44 NW9G17 29.95S BAR HARBOR PTSUNNY 72 52 49 W8 29.89S WISCASSET SUNNY 73 50 44 VRB7G16 29.93S ROCKLAND MOSUNNY 70 52 52 W13 29.91S FRYEBURG MOSUNNY 70 49 47 W12 29.95S LEWISTONAUBURN N/A 68 49 50 NW9 29.94S AUGUSTA PTSUNNY 67 47 48 W8 29.93S WATERVILLE MOSUNNY 69 50 50 W13 29.90S BANGOR MOSUNNY 70 51 51 VRB7 29.90S GREENVILLE N/A 61 51 70 VRB6 29.90R MILLINOCKET CLOUDY 64 52 64 VRB7 29.90R HOULTON PTSUNNY 68 53 58 SW8 29.83S PRESQUE ISLE PTSUNNY 61 47 59 NW9 29.88R FRENCHVILLE CLOUDY 58 43 57 NW9 29.87R CARIBOU SUNNY 63 46 54 NW8 29.86R $$ NHZ002-005-008-009-011-012-014-261700- NEW HAMPSHIRE CITY SKY/WX TMP DP RH WIND PRES REMARKS PORTSMOUTH MOSUNNY 74 49 40 W7G17 29.95S ROCHESTER PTSUNNY 72 49 44 VRB7 29.95S NASHUA PTSUNNY 73 49 42 W7 29.98S MANCHESTER MOSUNNY 73 44 35 W9G20 29.96S CONCORD SUNNY 73 47 39 NW14G21 29.97S LACONIA PTSUNNY N/A N/A N/A W7 29.97S PLYMOUTH FAIR 70 47 44 W9 29.96S BERLIN CLOUDY 64 48 56 VRB5 29.97S WHITEFIELD CLOUDY 63 48 58 N7 29.98R JAFFREY PTSUNNY 71 49 45 VRB5 30.00S KEENE PTSUNNY 71 49 45 VRB6 29.98F LEBANON CLOUDY 73 49 42 VRB6 29.97S MT WASHINGTON FOG 37 37 100 NW30 N/A VSB 0 $$ VTZ005-007-008-261700- VERMONT CITY SKY/WX TMP DP RH WIND PRES REMARKS ST JOHNSBURY N/A 65 49 56 MISG 29.96R BURLINGTON PTSUNNY 69 47 45 VRB3 29.98R $$ MAZ007-012-024-CTZ003-RIZ002-NYZ038-NYZ072-261700- SOUTHERN NEW ENGLAND AND NY CITY SKY/WX TMP DP RH WIND PRES REMARKS BOSTON MOSUNNY 75 48 38 W13 29.97F WORCESTER MOSUNNY 68 49 50 W10 30.02S NANTUCKET SUNNY 75 53 46 VRB7 30.01R PROVIDENCE MOSUNNY 75 53 46 NW12 30.00F HARTFORD PTSUNNY 75 49 39 NW7 30.00F ALBANY PTSUNNY 72 54 53 W7 30.00S $$ ANZ081-ANZ082-ANZ150-NHZ014-MEZ023>029-261700- COASTAL MARINE OBSERVATIONS STATION/POSITION TIME TEMP WIND PRES WAVE AIR SEA DIR/SP/G HT/PER (UTC) (F) (DEG/KT/KT) (MB) (FT/S) MATINICUS ROCK 1500 58 260/ 13/ 13 1012.6R ISLE OF SHOALS 1500 66 260/ 8/ 9 1014.4R JEFFREYS LEDGE 1536 58 N/A 2/ 6 CASHES LEDGE BUO 1450 64 60 1013.6 3/ 8 GEORGES BANK BUO 1450 56 54 1015.0 3/ 8 $$ .............KEY.............. WCI - WIND CHILL TC - TEMPERATURE IN CELSIUS VSB - VISIBILITY IN MILES HX - HEAT INDEX FAIR- INDICATES FEW OR NO CLOUDS BELOW 12,000 FT, WITH NO SIGNIFICANT WEATHER AND/OR OBSTRUCTIONS TO VISIBILITY.

USA.gov is the U.S. government's official web portal to all federal, state and local government web resources and services.